Location: Leiter
(44.7178°N, 106.2687°W)
Time: 08:17:13
(UTC+00:00)

SEEDS - Visible Passes

Search period start: 27 June 2022 00:00
Search period end: 07 July 2022 00:00
Orbit: 580 x 599 km, 97.6° (Epoch: 26 June)

Date Brightness Start Highest point End Pass type
(mag) Time Alt. Az. Time Alt. Az. Time Alt. Az.
03 Jul ? 10:06:48 10° ENE 10:08:17 12° E 10:09:47 10° ESE visible
04 Jul ? 10:13:56 10° ENE 10:16:11 14° E 10:18:26 10° SE visible
05 Jul ? 10:21:18 10° NE 10:24:05 17° E 10:26:50 10° SE visible
06 Jul ? 10:28:48 10° NE 10:31:57 21° E 10:35:04 10° SE visible
